Temp
61 61 63 61 61 62 61 62 60 62 60 60 61 60 59 57 56 57 56 55 55 55
64 63 63 63 61 63 63 64 61 62 62 60 60 60 59 56 57 57 56 55 55 55
65 66 65 63 64 63 62 63 62 62 62 61 60 60 59 57 57 57 56 57 56 55
65 66 66 65 65 66 65 62 63 64 62 62 62 61 60 59 58 59 58 58 56 57
64 64 65 66 66 67 66 67 67 64 64 63 63 63 62 60 63 61 59 59 57 58
63 62 64 66 67 67 67 67 67 67 64 64 64 63 64 64 63 62 63 61 60 59
62 62 63 65 64 65 67 67 66 66 66 65 65 65 65 65 64 63 63 62 62 60
63 63 62 62 63 64 65 68 68 66 66 65 65 66 64 64 63 63 62 62 62 62
63 63 62 61 61 61 61 63 65 66 66 65 66 65 62 63 63 63 63 61 62 64
64 63 61 61 61 60 60 63 63 65 65 65 65 63 63 61 64 63 63 63 63 62
63 62 61 60 59 58 59 59 62 63 64 64 66 62 62 61 64 63 63 63 64 62
62 62 59 58 57 57 57 57 60 63 62 61 64 61 61 60 64 63 62 62 63 63
61 61 61 58 56 57 57 59 61 61 62 61 62 61 59 60 64 61 61 62 62 58
60 60 61 58 57 56 55 56 55 58 59 59 62 61 59 58 63 62 60 60 61 62
MSLP
1012.42 1012.93 1013.24 1013.44 1013.59 1013.80 1014.05 1014.30 1014.55 1014.89 1015.23 1015.51 1015.80 1016.11 1016.46 1016.95 1017.30 1017.60 1017.90 1018.15 1018.26 1018.43
1011.72 1012.04 1012.30 1012.57 1012.73 1012.90 1013.06 1013.38 1013.79 1014.11 1014.47 1014.75 1015.17 1015.49 1015.88 1016.22 1016.63 1016.96 1017.22 1017.46 1017.68 1017.84
1010.90 1011.20 1011.49 1011.87 1012.00 1012.04 1012.17 1012.44 1012.76 1013.26 1013.66 1014.01 1014.31 1014.75 1015.13 1015.55 1015.88 1016.33 1016.53 1016.76 1017.04 1017.22
1010.19 1010.52 1010.91 1011.11 1011.07 1011.12 1011.39 1011.53 1011.77 1012.12 1012.61 1013.08 1013.48 1013.78 1014.23 1014.62 1015.04 1015.38 1015.71 1015.93 1016.20 1016.38
1009.46 1009.83 1010.18 1010.25 1010.24 1010.29 1010.22 1010.31 1010.59 1010.98 1011.39 1011.77 1012.21 1012.70 1013.09 1013.52 1013.81 1014.22 1014.50 1014.74 1015.25 1015.47
1008.80 1009.08 1009.29 1009.30 1009.41 1009.70 1009.84 1009.91 1009.97 1010.05 1010.18 1010.35 1010.65 1011.13 1011.49 1011.91 1012.40 1012.74 1012.91 1013.33 1013.88 1014.32
1008.10 1008.17 1008.25 1008.39 1008.60 1008.77 1008.89 1009.09 1009.24 1009.26 1009.27 1009.47 1009.72 1009.95 1010.29 1010.59 1010.96 1011.38 1011.75 1012.09 1012.48 1013.03
1007.82 1007.43 1007.49 1007.60 1007.67 1007.76 1007.88 1008.02 1008.28 1008.56 1008.71 1008.75 1008.72 1008.89 1009.28 1009.54 1009.76 1010.13 1010.54 1010.85 1011.13 1011.41
1007.82 1007.44 1007.17 1007.12 1007.09 1007.10 1007.17 1007.17 1007.25 1007.32 1007.50 1007.72 1007.70 1007.64 1007.76 1008.23 1008.65 1008.88 1009.15 1009.38 1009.59 1009.92
1008.34 1007.80 1007.32 1006.88 1006.51 1006.49 1006.56 1006.53 1006.56 1006.39 1006.34 1006.40 1006.49 1006.74 1007.08 1007.35 1007.52 1007.73 1007.68 1007.91 1008.25 1008.59
1008.45 1007.94 1007.37 1006.90 1006.48 1006.02 1005.78 1005.81 1005.84 1005.75 1005.54 1005.43 1005.25 1005.52 1005.96 1006.52 1006.85 1006.85 1006.91 1007.00 1007.14 1007.39
1008.53 1007.92 1007.25 1006.70 1006.22 1005.84 1005.55 1005.13 1004.91 1004.81 1004.76 1004.68 1004.47 1004.47 1004.67 1005.27 1005.59 1005.60 1005.59 1005.75 1005.86 1006.09
1008.55 1007.87 1007.13 1006.37 1005.78 1005.34 1005.02 1004.64 1004.29 1003.96 1003.74 1003.61 1003.51 1003.48 1003.66 1004.05 1004.19 1004.04 1004.21 1004.43 1004.40 1004.54
1008.18 1007.58 1006.83 1006.12 1005.45 1004.78 1004.37 1004.09 1003.71 1003.33 1003.00 1002.79 1002.57 1002.48 1002.57 1002.89 1002.88 1002.67 1003.21 1003.10 1003.00 1003.03
Wind_Speed
9 7 9 8 6 7 7 8 8 11 8 9 8 8 7 5 5 7 6 9 7 5
12 11 11 11 7 8 8 7 9 12 12 9 9 9 8 6 7 7 6 7 7 6
12 13 13 9 12 10 8 9 9 12 12 10 9 9 9 7 6 7 6 6 8 7
10 12 11 13 12 13 10 9 10 14 13 13 12 11 10 10 9 11 9 8 9 10
8 8 11 13 15 13 14 14 14 11 15 15 15 13 14 13 13 14 13 12 10 11
8 8 11 12 12 12 12 13 14 14 15 17 17 17 17 16 16 15 15 14 14 13
8 8 9 9 8 9 12 13 13 15 16 16 16 17 17 17 17 16 14 13 14 14
8 7 7 8 8 8 9 12 13 14 15 15 15 13 17 17 17 16 15 14 15 15
8 7 8 8 8 8 8 9 11 14 15 16 13 20 22 19 16 17 17 16 17 16
10 10 8 8 8 8 9 9 11 13 14 16 16 19 21 23 15 16 18 18 16 15
10 10 8 8 8 8 7 9 11 13 13 14 14 19 21 22 20 16 16 17 17 17
10 12 9 8 8 7 7 7 9 11 12 13 15 17 21 19 18 19 18 15 16 17
12 11 13 9 8 6 6 8 7 10 12 15 15 17 19 21 14 18 15 16 16 22
11 12 12 10 6 7 7 7 7 9 9 10 13 13 18 23 17 15 13 14 14 14
Wind_Direction
197 195 210 209 194 194 192 202 186 198 192 195 197 194 192 187 197 193 204 209 209 210
200 204 207 211 207 199 197 194 190 192 199 194 195 192 188 189 200 199 203 211 208 207
208 211 214 210 218 211 200 201 184 188 193 196 193 191 187 196 194 201 210 204 203 209
211 215 214 219 218 214 208 201 197 191 189 194 199 196 192 196 196 208 204 207 203 209
209 208 218 223 223 219 213 205 203 192 193 194 197 198 200 199 205 207 209 204 204 211
214 206 221 228 228 222 223 218 213 205 199 199 199 198 202 203 204 210 212 204 202 207
233 218 212 220 224 221 220 222 216 214 212 210 209 208 207 205 208 211 212 204 203 202
265 239 230 221 220 223 220 224 221 219 222 218 213 210 209 210 210 208 209 206 204 206
329 291 253 238 228 224 228 225 223 222 219 221 222 219 208 206 210 210 209 208 210 211
338 333 314 270 233 225 227 232 236 231 223 226 224 221 217 211 214 213 214 214 211 212
333 323 312 317 291 253 222 225 235 242 236 233 230 216 215 214 222 225 224 221 218 215
326 317 305 297 291 284 257 238 231 237 240 237 239 223 213 205 221 227 226 219 219 215
318 309 309 289 280 267 263 257 245 244 239 239 242 232 216 207 221 227 223 226 223 217
307 307 302 304 281 271 269 268 264 254 250 244 240 236 221 211 221 226 226 230 229 225